Regional Weather Roundup
Issued by NWS

Home | Current Version | Previous Version | Graphics & Text | Print | Product List | Glossary On
Versions: 1 2 3 4 5 6 7 8 9 10 11 12 13 14 15 16 17 18 19 20 21 22 23 24 25 26 27 28 29 30 31 32 33 34 35 36 37 38 39 40 41 42 43 44 45 46 47 48 49 50
000
ASUS45 KCYS 230410
RWRWY

WYOMING REGIONAL WEATHER ROUNDUP
NATIONAL WEATHER SERVICE CHEYENNE WY
1000 PM MDT TUE JUL 22 2014

NOTE:  "FAIR" INDICATES FEW OR NO CLOUDS BELOW 12,000 FEET
WITH NO SIGNIFICANT WEATHER AND/OR OBSTRUCTIONS TO VISIBILITY.

WYZ001-230500-
YELLOWSTONE NATIONAL PARK

CITY           SKY/WX    TMP DP  RH WIND       PRES   REMARKS
LK YELLOWSTONE   N/A     54  44  69 W3        30.48S
W YELLOWSTONE  NOT AVBL

$$
WYZ002>013-054>058-071-098>099-230500-
NORTHERN WYOMING

CITY           SKY/WX    TMP DP  RH WIND       PRES   REMARKS
JACKSON        CLEAR     61  45  55 N7        30.33S
CODY           CLEAR     70  46  43 NW8       30.28R
GREYBULL       CLEAR     84  46  26 N5        30.12R
WORLAND        CLEAR     77  40  26 CALM      30.12R
SHERIDAN       PTCLDY    70  57  63 W12       30.31R
BUFFALO        PTCLDY    75  53  46 NW25G38   30.34R
GILLETTE       CLEAR     74  55  51 SE14      30.22R
HULETT         FAIR      68  63  83 MISG      30.27
NEWCASTLE      FAIR      72  50  46 CALM      30.25

$$
WYZ014>020-022>026-101>103-230500-
CENTRAL WYOMING

CITY           SKY/WX    TMP DP  RH WIND       PRES   REMARKS
BIG PINEY      CLEAR     65  24  21 E3        30.39R
PINEDALE       CLEAR     66  34  30 N3        30.41R
DUBOIS         FAIR      66  32  28 N5        30.41R
LANDER         CLEAR     77  29  17 W14       30.24R
RIVERTON       CLEAR     81  34  18 E5        30.25R
CASPER         CLEAR     72  50  45 E7        30.24R
DOUGLAS        CLEAR     73  54  51 SE7       30.24R

$$
WYZ021-027>030-104>119-230500-
SOUTHERN WYOMING

CITY           SKY/WX    TMP DP  RH WIND       PRES   REMARKS
EVANSTON       CLEAR     79  31  17 N3        30.37R
KEMMERER       CLEAR    N/A N/A N/A N10       30.40R
ROCK SPRINGS   CLEAR     80  22  11 E5        30.35R
DIXON          FAIR      71  31  22 E8        30.37R
RAWLINS        CLEAR     71  22  15 NW7       30.37R
SARATOGA       FAIR      64  32  29 S12       30.40R
LARAMIE        CLEAR     70  50  49 S14       30.44R
CHEYENNE       CLEAR     75  54  47 S12       30.37R
TORRINGTON     CLEAR     76  57  51 SE13      30.20R
PINE BLUFFS    FAIR      73  55  53 SE8       30.30R

$$


USA.gov is the U.S. government's official web portal to all federal, state and local government web resources and services.